OneWeb SL0335

operational
NORAD ID: 49201 Int'l Des: 2021-083 Owner: ONEWEBN Country: UK Constellation: oneweb
LEOCIRCULARPOLARONEWEB_TYPE

About OneWeb SL0335

Description loading...

Live Position

Loading 3D Globe...

Upcoming Passes

Altitude History

Altitude vs Time

uPlot chart will show altitude changes over time

Two-Line Element Set

1 49201U 21083R 25347.26175371 .00000286 00000-0 74957-3 0 9994
2 49201 87.8971 357.1963 0001708 98.0753 262.0570 13.13470794206515
Epoch: Dec 13, 2025 • Age: 19 hours

Current Status

Altitude 1211.7 km
Velocity 7.25 km/s
Sub-Earth Point 7.55°N, 72.19°E
Launch Date Sep 14, 2021
Age 4.2 years
Type internet

Technical Details

Classification Payload
Mass 148.00 kg
Dry Mass 140.00 kg
Total Mass 148.00 kg
Length 1.30 m
Diameter 1.00 m
Span 5.00 m
Shape Trapezoid+2 pan
Manufacturer ONEWUS
Bus Type ARROW
Phase Status In Orbit
Owner/State ONEWEBN/UK

Large Constellations

Loading constellations...